Location: Beaum�
(49.8375°N, 4.1493°E)
Time: 00:45:43
(UTC+00:00)

Daily predictions for brighter satellites

Satellite Brightness Start Highest point End
(mag) Time Altitude Azimuth Time Altitude Azimuth Time Altitude Azimuth
Cosmos 2219 Rocket 3.9 03:41:53 26° NNE 03:41:53 26° NNE 03:44:15 10° NNE
Cosmos 2237 Rocket 3.4 03:43:06 38° ESE 03:43:06 38° ESE 03:48:06 10° NE
BREEZE-M DEB (TANK) 4.1 03:55:50 75° SW 03:56:05 75° SSW 04:00:52 10° ESE
Cosmos 2333 Rocket 3.6 04:04:35 29° N 04:04:35 29° N 04:07:27 10° NNE
Lacrosse 4 Rocket 3.5 04:04:26 24° ESE 04:04:26 24° ESE 04:07:54 10° ENE
FENGYUN 3A 4.2 04:00:14 10° NNE 04:04:53 56° ENE 04:04:53 56° ENE
Cosmos 2360 Rocket 4.1 04:15:25 18° N 04:15:25 18° N 04:17:22 10° NNE
Cosmos 1464 Rocket 4.1 04:13:47 41° S 04:16:01 73° E 04:22:12 10° NNE
Cosmos 841 Rocket 3.9 04:16:53 60° E 04:16:53 60° E 04:21:33 10° NNE
SL-16 R/B 4.4 04:18:48 13° N 04:18:48 13° N 04:20:05 10° N
Cosmos 1980 3.8 04:17:06 71° ESE 04:17:06 71° ESE 04:22:46 10° NNE
Cosmos 2322 Rocket 4.3 04:20:13 14° N 04:20:13 14° N 04:21:36 10° N
Meteor 1-21 Rocket 4.3 04:17:53 53° N 04:19:16 75° ENE 04:25:07 10° SSE
COSMOS 2428 3.6 04:25:09 37° N 04:25:09 37° N 04:28:53 10° NNE
Cosmos 1072 Rocket 4.4 04:22:08 54° S 04:23:43 88° E 04:30:08 10° N
SKYMED 2 4.4 04:20:10 10° SE 04:23:56 48° E 04:23:56 48° E
ATLAS CENTAUR R/B 2.8 04:31:44 31° E 04:31:44 31° E 04:34:22 10° NE
METEOR-M 4.1 04:27:25 10° NNE 04:32:48 79° ESE 04:34:34 44° S
Cosmos 2150 Rocket 4.4 04:33:50 36° N 04:35:56 63° ENE 04:41:18 10° SE
Cosmos 2084 Rocket 4.2 04:37:18 50° SE 04:37:18 50° SE 04:40:39 10° SE
Cosmos 1092 Rocket 4.5 04:31:09 10° N 04:37:14 58° ENE 04:43:19 10° SSE
Cosmos 372 Rocket 4.4 04:40:32 49° S 04:40:32 49° S 04:44:25 10° SSE
ALOS 3.6 04:35:31 10° N 04:37:53 30° N 04:37:53 30° N
Cosmos 1602 Rocket 3.9 04:40:24 44° NNE 04:41:40 64° ENE 04:46:06 10° SSE
USA 215 3.4 04:35:34 10° ENE 04:41:56 57° NNW 04:43:15 49° WNW
ADEOS 3.6 04:37:57 10° NNE 04:43:12 79° ESE 04:47:40 14° SSW
GEOS 3 Rocket 4.2 04:39:21 10° ESE 04:44:36 55° NE 04:46:53 32° NNW
USA 307 3.7 04:44:43 42° SSE 04:44:58 43° SE 04:48:59 10° ENE
NOSS 0 Rocket 3.8 04:45:40 60° W 04:46:31 68° NW 04:52:42 10° NNE
Cosmos 1328 4.2 04:46:59 60° E 04:46:59 60° E 04:50:46 10° SSE
CZ-2C R/B 4.3 04:43:02 10° N 04:44:42 19° N 04:44:42 19° N
Nadezhda 4 Rocket 3.8 04:41:40 10° NNW 04:47:48 78° W 04:53:54 10° S
USA 305 3.5 04:50:49 47° SSE 04:51:13 48° SE 04:55:19 10° ENE
USA 308 3.6 04:53:17 45° S 04:53:55 49° SE 04:58:03 10° ENE
Cosmos 1400 Rocket 3.0 04:53:20 36° S 04:54:56 72° E 04:59:04 10° NNE
Cosmos 1943 Rocket 2.7 04:51:10 21° NNW 04:54:57 59° ENE 05:00:33 10° SE
SL-4 R/B 2.4 04:55:30 53° SE 04:55:30 53° SE 04:59:20 10° ENE
Cosmos 2034 Rocket 3.9 04:51:15 10° SSW 04:57:37 81° W 05:04:00 10° N
Meteor 1-16 Rocket 4.3 04:52:37 10° S 04:58:34 90° ENE 05:04:31 10° NNE
Cosmos 1570 Rocket 3.8 04:57:36 51° SW 04:58:54 74° WNW 05:04:11 10° NNE
SJ-12 3.9 04:57:18 10° NNE 05:01:30 85° ESE 05:04:12 21° SSW
Cosmos 540 Rocket 3.5 05:01:40 55° WNW 05:01:41 55° WNW 05:06:46 10° NNE
CZ-2C R/B 4.2 04:57:51 10° SE 05:02:34 34° ENE 05:07:23 10° N
Cosmos 2298 Rocket 3.9 05:00:28 36° NNW 05:02:41 78° WSW 05:08:00 10° SSE
USA 306 3.3 05:02:36 47° SSW 05:03:27 57° SSE 05:07:37 10° ENE
Cosmos 2369 Rocket 3.1 05:00:31 13° NNW 05:05:17 45° NE 05:10:38 10° SE
NOSS 3-2 (A) 3.8 05:00:28 14° SSW 05:05:24 63° SE 05:11:52 10° NE
Cosmos 1125 Rocket 3.6 05:01:52 21° NNW 05:05:28 80° ENE 05:10:47 10° SSE
Envisat 4.4 05:00:47 10° NNE 05:05:34 39° E 05:10:19 10° SSE
Cosmos 1814 Rocket 3.8 05:03:50 41° SW 05:05:34 72° WNW 05:10:44 10° NNE
Cosmos 1634 Rocket 4.5 05:01:55 10° S 05:07:57 61° E 05:14:03 10° NNE
CZ-4B R/B 2.9 05:06:56 10° NNE 05:10:34 68° ESE 05:14:19 10° S
Cosmos 1461 4.2 05:11:24 30° NNW 05:11:24 30° NNW 05:15:13 10° NNE
CZ-4B R/B 4.0 05:07:58 10° N 05:12:24 61° WNW 05:13:34 44° SW
COSMO-SKYMED 1 2.5 05:08:09 10° S 05:12:25 57° W 05:12:33 56° W
PSLV R/B 3.9 05:10:20 10° SSE 05:14:29 86° ENE 05:17:58 15° NNW
Cosmos 2278 Rocket 4.2 05:18:36 12° SW 05:18:36 12° SW 05:19:09 10° SSW
Cosmos 2228 4.1 05:14:03 10° SSE 05:18:05 46° E 05:22:09 10° NNE
SL-16 R/B 2.4 05:13:01 10° SSW 05:18:40 74° ESE 05:24:21 10° NNE
NOSS 3-2 (C) 4.3 05:13:42 10° SSW 05:19:07 49° ESE 05:25:20 10° NE
Cosmos 972 Rocket 4.3 05:16:57 10° SSW 05:23:11 86° ESE 05:28:45 10° NNE
Cosmos 2219 Rocket 3.5 05:23:36 21° NW 05:23:36 21° NW 05:27:40 10° N
Cosmos 2026 Rocket 4.0 05:17:08 10° N 05:23:32 86° W 05:29:56 10° S
ATLAS 5 CENTAUR R/B 3.9 05:25:46 13° SSW 05:25:46 13° SSW 05:27:00 10° S
ERS-2 2.1 05:21:31 10° S 05:25:05 54° WSW 05:25:10 54° W
CENTAUR R/B 3.1 05:20:31 10° SSW 05:26:20 59° ESE 05:33:16 10° NE
Cosmos 2237 Rocket 2.5 05:24:59 33° W 05:26:54 44° NW 05:32:22 10° NNE
Cosmos 2208 Rocket 4.1 05:23:25 21° SW 05:26:56 56° WNW 05:32:15 10° NNE
H-2A R/B 2.6 05:23:50 10° NNE 05:27:34 83° ESE 05:31:20 10° SSW
Cosmos 1953 4.3 05:32:23 15° NNW 05:32:23 15° NNW 05:33:20 10° N
Meteor PRIRODA 3.4 05:28:37 10° N 05:32:14 72° WNW 05:35:51 10° SSW
Cosmos 1606 Rocket 4.0 05:30:16 10° S 05:34:30 61° E 05:38:48 10° NNE
FALCON 9 DEB 4.3 05:38:25 17° SSW 05:40:25 35° SSE 05:43:18 10° ENE
Lacrosse 4 Rocket 1.7 05:40:48 27° WSW 05:42:47 48° NW 05:47:05 10° NNE
Meteor 1-11 4.2 05:38:53 10° NNW 05:44:21 57° W 05:49:48 10° S
Cosmos 1300 2.5 05:42:36 10° SSW 05:46:25 77° WNW 05:50:14 10° N
Cosmos 2333 Rocket 3.8 05:46:36 16° NW 05:47:26 16° NNW 05:50:57 10° N
SAR-Lupe-4 4.0 05:45:23 10° S 05:48:45 38° W 05:50:19 25° NW
deb Chang Zheng 4 3.8 05:45:54 10° N 05:49:56 44° WNW 05:53:57 10° SW
Cosmos 1315 Rocket 2.6 05:47:04 10° SSW 05:50:58 83° WNW 05:54:55 10° N
Cosmos 1655 Rocket 4.4 05:46:03 10° N 05:52:18 66° ENE 05:58:33 10° SSE
Meteor 1-31 Rocket 4.1 05:50:07 10° NNW 05:52:39 22° NW 05:52:39 22° NW
Cosmos 2297 4.2 05:50:12 17° NW 05:54:03 38° WSW 05:59:17 10° S
Cosmos 1346 Rocket 3.3 05:54:23 14° NNW 05:57:27 37° W 06:01:07 10° SSW
MOS 1 Rocket 4.0 05:53:58 10° SSW 05:58:12 30° W 06:02:15 10° NNW
USA 238 DEB 3.6 05:54:30 10° SW 06:01:07 79° NW 06:08:08 10° NE
USA 238 3.6 05:54:36 10° SW 06:01:14 79° NW 06:08:14 10° NE
Cosmos 836 Rocket 4.4 05:56:04 10° SSW 06:01:19 78° WNW 06:06:35 10° NNE
Cosmos 1758 Rocket 4.1 05:58:09 10° NNW 06:02:17 36° W 06:06:22 10° SSW
FALCON 9 DEB 3.6 06:01:26 24° WNW 06:03:11 47° N 06:06:30 10° ENE
Cosmos 1689 Rocket 3.4 06:05:13 10° SSW 06:07:23 20° W 06:07:23 20° W
COSMOS 2428 4.3 06:07:11 14° NW 06:08:59 16° NNW 06:12:20 10° N
Cosmos 1441 Rocket 3.8 06:05:06 10° N 06:09:02 62° ENE 06:12:53 10° SSE
ATLAS CENTAUR R/B 1.9 06:07:57 19° W 06:09:53 31° NW 06:13:13 10° NNE
SL-19 R/B 4.1 06:10:10 10° NNE 06:13:58 82° ESE 06:17:16 10° SSW
BREEZE M DEB (TANK) 3.1 06:12:11 10° SW 06:14:29 43° SSE 06:19:32 10° ENE
ALOS 4.1 06:15:05 10° NNW 06:16:23 12° NW 06:16:23 12° NW
MOS 1-B 4.4 06:11:03 10° NNE 06:16:53 88° ESE 06:22:40 10° SSW
YAOGAN 6 3.1 06:14:19 10° N 06:17:48 39° WNW 06:21:15 10° SW
Cosmos 1892 2.6 06:14:07 10° NNW 06:17:57 71° W 06:21:48 10° S
Cosmos 1184 Rocket 3.7 06:15:16 10° N 06:18:28 49° ENE 06:21:38 10° SSE
Spot 2 3.8 06:14:33 10° NNE 06:18:37 78° WNW 06:22:42 10° SSW
Cosmos 1726 Rocket 3.5 06:14:30 10° SSW 06:18:47 61° WNW 06:23:05 10° N
Cosmos 2058 Rocket 3.1 06:16:21 10° S 06:20:46 89° E 06:25:15 10° N
Cosmos 1603 4.2 06:16:19 10° SSW 06:21:51 64° ESE 06:27:28 10° NNE
FALCON 9 DEB 3.0 06:19:30 10° WSW 06:22:36 74° SSE 06:25:41 10° ENE
GEOS 3 Rocket 4.3 06:17:43 10° SSE 06:22:44 40° WSW 06:27:50 10° NW
USA 215 3.8 06:18:12 10° ENE 06:24:25 48° N 06:30:36 10° WNW
USA 307 3.0 06:20:53 11° W 06:24:54 63° NNW 06:29:07 10° ENE
CZ-4B DEB 4.2 06:22:22 10° N 06:27:55 67° WNW 06:33:24 10° SSW
In-Cosmos 22 Rocket 4.2 06:22:57 10° NNW 06:28:18 56° W 06:33:31 10° S
PSLV R/B 4.3 06:24:50 10° N 06:28:37 41° WNW 06:32:26 10° SW
Cosmos 2292 Rocket 3.3 06:27:18 10° NNW 06:30:07 36° W 06:33:16 10° SSW
Cosmos 2279 Rocket 4.1 06:24:49 10° SSW 06:30:57 57° WNW 06:37:09 10° N
USA 305 3.0 06:27:00 10° W 06:31:12 59° NNW 06:35:24 10° ENE
FALCON 9 DEB 3.0 06:28:14 10° WSW 06:31:22 77° SSE 06:34:30 10° ENE
Cosmos 1408 2.5 06:28:06 10° NNW 06:31:41 67° W 06:35:17 10° S
Cosmos 2098 Rocket 4.4 06:29:01 10° NNW 06:33:46 27° W 06:37:42 10° SW
USA 308 3.1 06:29:41 10° W 06:33:56 60° NNW 06:38:10 10° ENE
Okean O Rocket 1.6 06:29:33 10° NNE 06:33:57 88° E 06:38:18 10° SSW
SL-4 R/B 2.0 06:31:08 10° W 06:35:00 70° N 06:39:12 10° ENE
SMAP 3.0 06:31:22 10° N 06:36:02 67° WNW 06:40:38 10° SSW
Cosmos 2263 4.3 06:32:15 10° NW 06:37:49 58° WSW 06:43:23 10° S
Cosmos 1943 Rocket 3.2 06:33:39 10° NW 06:38:20 27° WSW 06:43:00 10° SSW
H-2A R/B 2.7 06:35:46 10° N 06:40:13 60° WNW 06:44:39 10° SSW
Iridium 4 Rocket 4.1 06:35:42 10° S 06:41:32 79° E 06:47:27 10° N
CZ-2C R/B 3.0 06:37:46 10° SSW 06:42:45 42° W 06:47:54 10° NNW
Cosmos 1939 Rocket 3.0 06:39:00 10° NNE 06:42:56 79° ESE 06:46:48 10° S
USA 306 3.1 06:39:20 10° W 06:43:31 55° NNW 06:47:41 10° ENE
Envisat 3.6 06:39:59 10° N 06:44:31 34° WNW 06:49:03 10° SW
CZ-4B R/B 4.5 06:43:33 10° NNW 06:45:15 13° WNW 06:46:56 10° W
Cosmos 2369 Rocket 2.8 06:44:08 10° NW 06:49:13 36° WSW 06:54:15 10° S
Cosmos 1076 Rocket 3.6 06:45:27 10° N 06:49:44 84° ENE 06:53:59 10° S
Cosmos 773 Rocket 4.0 06:44:37 10° SSW 06:49:52 86° WNW 06:55:07 10° NNE
